TimeMST,TemperatureF,Dew PointF,Humidity,Sea Level PressureIn,VisibilityMPH,Wind Direction,Wind SpeedMPH,Gust SpeedMPH,PrecipitationIn,Events,Conditions,WindDirDegrees,DateUTC
12:55 AM,48.9,33.1,54,29.87,10.0,WSW,9.2,-,N/A,,Partly Cloudy,250,2013-02-09 07:55:00
1:55 AM,46.9,33.1,59,29.88,10.0,WSW,5.8,-,N/A,,Clear,250,2013-02-09 08:55:00
2:55 AM,46.0,32.0,58,29.88,10.0,Calm,Calm,-,N/A,,Partly Cloudy,0,2013-02-09 09:55:00
3:55 AM,46.0,33.1,61,29.88,10.0,SSW,5.8,-,N/A,,Clear,210,2013-02-09 10:55:00
4:55 AM,46.0,30.9,56,29.87,10.0,WNW,6.9,-,N/A,,Clear,290,2013-02-09 11:55:00
5:55 AM,44.1,32.0,63,29.88,10.0,SW,4.6,-,N/A,,Clear,230,2013-02-09 12:55:00
6:55 AM,44.1,32.0,63,29.91,10.0,West,6.9,-,N/A,,Clear,270,2013-02-09 13:55:00
7:55 AM,45.0,32.0,60,29.94,10.0,WNW,4.6,-,N/A,,Partly Cloudy,290,2013-02-09 14:55:00
8:55 AM,48.0,32.0,54,29.96,10.0,NW,5.8,-,N/A,,Partly Cloudy,310,2013-02-09 15:55:00
9:55 AM,52.0,32.0,47,29.99,10.0,West,6.9,-,N/A,,Partly Cloudy,280,2013-02-09 16:55:00
10:55 AM,55.0,28.9,37,30.00,10.0,West,12.7,-,N/A,,Partly Cloudy,280,2013-02-09 17:55:00
11:55 AM,57.9,26.1,30,30.00,10.0,WNW,12.7,-,N/A,,Partly Cloudy,300,2013-02-09 18:55:00
12:55 PM,61.0,27.0,27,29.99,10.0,West,18.4,24.2,N/A,,Partly Cloudy,280,2013-02-09 19:55:00
1:55 PM,61.0,30.0,31,29.98,10.0,West,10.4,-,N/A,,Scattered Clouds,260,2013-02-09 20:55:00
2:55 PM,61.0,28.9,30,29.98,-9999.0,West,8.1,-,N/A,,Scattered Clouds,270,2013-02-09 21:55:00
3:55 PM,62.1,28.9,29,29.97,7.0,West,15.0,21.9,N/A,,Scattered Clouds,270,2013-02-09 22:55:00
4:55 PM,61.0,25.0,25,29.98,7.0,West,11.5,-,N/A,,Partly Cloudy,270,2013-02-09 23:55:00
5:55 PM,60.1,27.0,28,29.98,7.0,WNW,6.9,-,N/A,,Partly Cloudy,300,2013-02-10 00:55:00
6:55 PM,57.0,28.0,33,29.99,7.0,WNW,3.5,-,N/A,,Partly Cloudy,300,2013-02-10 01:55:00
7:55 PM,55.0,28.9,37,30.00,7.0,Calm,Calm,-,N/A,,Partly Cloudy,0,2013-02-10 02:55:00
8:55 PM,53.1,30.9,43,30.02,7.0,West,3.5,-,N/A,,Clear,260,2013-02-10 03:55:00
9:55 PM,52.0,30.0,43,30.03,7.0,WSW,3.5,-,N/A,,Clear,240,2013-02-10 04:55:00
10:55 PM,50.0,32.0,50,30.04,7.0,SW,4.6,-,N/A,,Clear,230,2013-02-10 05:55:00
11:55 PM,50.0,32.0,50,30.05,7.0,Calm,Calm,-,N/A,,Clear,0,2013-02-10 06:55:00